Find Kosmos-2158

NORAD ID: 21729 Int'l Des: 1991-068 Owner: UNKSR Country: SU operational
LEOCIRCULARPOLAR

リアルタイム位置

3D地球を読み込み中...

Kosmos-2158について

説明を読み込み中...

次回通過

Passes for default location (London). Set your location on the main map for personalized predictions.

高度履歴

Loading altitude history...

軌道要素

1 21729U 91068B 26107.15060490 .00000043 00000-0 17571-3 0 9997
2 21729 82.5881 350.1893 0004877 182.1271 332.5202 12.64068704594005
Epoch: Apr 17, 2026 • Age: 14 hours

現在のステータス

高度 1420.2 km
速度 7.15 km/s
衛星直下点 -29.09°S, 127.81°W
打ち上げ日 Sep 28, 1991
運用期間 34.5 years
タイプ other

技術仕様

分類 Payload
質量 225.00 kg
乾燥質量 225.00 kg
総質量 225.00 kg
長さ 1.60 m
直径 0.80 m
スパン 7.00 m
形状 Cyl + Ant
製造者 NPOPM
バスタイプ Strela-3
フェーズステータス In Orbit
所有者/国 UNKSR/SU

Most Searched